Regional Weather Roundup
Issued by NWS Green Bay, WI

Home | Current Version | Previous Version | Graphics & Text | Print | Product List | Glossary Off
Versions: 1 2 3 4 5 6 7 8 9 10 11 12 13 14 15 16 17 18 19 20 21 22 23 24 25 26 27 28 29 30 31 32 33 34 35 36 37 38 39 40 41 42 43 44 45 46 47 48 49 50

000
ASUS43 KGRB 270611
RWRGRB

NORTH-CENTRAL AND NORTHEAST WISCONSIN REGIONAL WEATHER ROUNDUP
NATIONAL WEATHER SERVICE GREEN BAY WI
100 AM CDT THU AUG 27 2015

WIZ005-009-010>012-018-019-270700-
NORTH CENTRAL WISCONSIN

CITY           SKY/WX    TMP DP  RH WIND       PRES   REMARKS
IRONWOOD       FAIR      41  39  93 CALM      30.13S
MANITOWISH WTR FAIR      37  37 100 CALM      30.17R
ARBOR VITAE    FAIR      44  43  95 CALM      30.17R
EAGLE RIVER    FAIR      42  42 100 CALM      30.16S
LAND O LAKES   FAIR      38  38 100 CALM      30.18R FOG
RHINELANDER    FAIR      44  43  96 CALM      30.17R FOG
PHILLIPS       FAIR      45  45  99 CALM      30.16S
ANTIGO         FAIR      47  46  96 N5        30.16S
TOMAHAWK       FAIR      41  40  96 CALM      30.17S
MERRILL        FAIR      45  45 100 CALM      30.17S FOG
$$

WIZ013-073-270700-
NORTHEAST WISCONSIN

CITY           SKY/WX    TMP DP  RH WIND       PRES   REMARKS
IRON MOUNTAIN  FOG       47  46  97 VRB3      30.15F VSB 1
MARINETTE      FAIR      54  48  82 CALM      30.14S
OCONTO         MOCLDY    51  51 100 CALM      30.14S VSB 3/4
$$

WIZ017-030-035>037-045-270700-
CENTRAL WISCONSIN

CITY           SKY/WX    TMP DP  RH WIND       PRES   REMARKS
MEDFORD        FAIR      49  48  98 CALM      30.16S
WAUSAU         FAIR      54  52  93 CALM      30.14S
MOSINEE        FAIR      52  52 100 CALM      30.16S
MARSHFIELD     FAIR      54  50  86 CALM      30.15R
WISC RAPIDS    FAIR      51  49  92 CALM      30.16R
STEVENS POINT  FAIR      48  47  95 CALM      30.16R
WAUPACA        FAIR      54  53  97 CALM      30.15S
SHAWANO        FOG       54  52  93 CALM      30.13F VSB 1/4
CLINTONVILLE   MOCLDY    52  50  93 CALM      30.13S
WAUTOMA        FAIR      49  49 100 CALM      30.16R
$$

WIZ038-039-048-051-270700-
FOX VALLEY

CITY           SKY/WX    TMP DP  RH WIND       PRES   REMARKS
NWS GREEN BAY  FAIR      53  52  96 S3        30.14S
APPLETON       FAIR      54  52  94 SE3       30.13S
OSHKOSH        FAIR      55  52  89 S8        30.14S
FOND DU LAC    FAIR      53  51  93 S3        30.16R
$$

WIZ022-050-052-270700-
EAST CENTRAL WISCONSIN

CITY           SKY/WX    TMP DP  RH WIND       PRES   REMARKS
EPHRAIM        MOCLDY    54  49  85 S6        30.15S
STURGEON BAY   FAIR      52  46  82 CALM      30.17S
MANITOWOC      FAIR      53  52  96 MISG      30.15S
SHEBOYGAN      FAIR      50  48  93 SW3       30.15F
$$

LMZ563-521-522-541>543-270700-
LAKESHORE

STATION/POSITION TIME  TEMP    WIND        PRES    VSBY  WAVE
                       AIR SEA DIR/SP/G                  HT/PER
                 (UTC) (F)     (DEG/KT/KT) (MB)    (MI)  (FT/S)
SHEBOYGAN LKSHOR 0600   57     240/ 10/ 10 1021.3F
KEWAUNEE LKSHORE 0500   52     160/  1/  2 1019.7
ALGOMA MARINA    0514             CALM       N/A
NORTHPORT PIER   0501   54      CALM  /  6 1021.3R
N MID LAKE BUOY  0550   60 64  350/  4/  6 1021.3R         1/ 3
S GREEN BAY BUOY 0600   60     210/  8/ 10 1021.8S
SISTER BAY LKSHO 0504   54     170/  7/  8   N/A
CHAMBERS ISLAND  0500   56     140/  3/  4 1021.0S
MENOMINEE LKSHOR 0500   58     140/  5/  7 1019.5
$$


USA.gov is the U.S. government's official web portal to all federal, state and local government web resources and services.